Regional Weather Roundup
Issued by NWS

Home | Current Version | Previous Version | Graphics & Text | Print | Product List | Glossary On
Versions: 1 2 3 4 5 6 7 8 9 10 11 12 13 14 15 16 17 18 19 20 21 22 23 24 25 26 27 28 29 30 31 32 33 34 35 36 37 38 39 40 41 42 43 44 45 46 47 48 49 50
000
ASUS43 KDMX 182107
RWRIA

WEATHER ROUNDUP FOR IOWA
NATIONAL WEATHER SERVICE DES MOINES IA
400 PM CDT THU SEP 18 2014

NOTE: "FAIR" INDICATES FEW OR NO CLOUDS BELOW 12,000 FEET WITH NO
SIGNIFICANT WEATHER AND/OR OBSTRUCTIONS TO VISIBILITY.

* - THESE STATIONS ARE NOT NWS STATIONS...THUS NOT UNDER NWS
QUALITY CONTROL.  THEY ALSO DO NOT REPORT WEATHER SUCH
AS PRECIPITATION OR FOG.

IAZ001>003-012>014-020>022-031>034-043>046-182200-
   NORTHWEST IOWA

CITY           SKY/WX    TMP DP  RH WIND       PRES   REMARKS
CARROLL *      SUNNY     72  55  56 MISG      30.01F
CHEROKEE *     SUNNY     73  52  46 SE13      29.99F
DENISON *      SUNNY     72  55  56 SE12      29.98S
LE MARS *      SUNNY     75  59  57 SE13G20   29.97F
ORANGE CITY *  SUNNY     75  54  46 S12G18    29.97F
SHELDON *      SUNNY     73  55  53 SE12      29.97F
SIOUX CITY     SUNNY     77  55  46 S9G18     29.96F
SPENCER        SUNNY     74  49  41 SE14      29.99F
STORM LAKE *   SUNNY     72  54  53 SE10G18   30.00S
$$

IAZ055>058-069>071-079>083-090>094-182200-
   SOUTHWEST IOWA

CITY           SKY/WX    TMP DP  RH WIND       PRES   REMARKS
ATLANTIC *     SUNNY     73  55  53 SE10      30.00S
AUDUBON *      SUNNY     72  54  53 SE9G16    30.02F
CLARINDA *     SUNNY     73  57  56 SE7       30.02S
COUNCIL BLFS * SUNNY     75  59  57 SE8       29.97F
CRESTON *      SUNNY     72  50  46 SE9G16    30.02F
HARLAN  *      MOSUNNY   73  57  56 VRB6G13   30.03F
LAMONI         MOSUNNY   67  58  72 VRB7      30.03F
SHENANDOAH *   SUNNY     72  57  60 E10       30.00F
$$

IAZ047>049-059>061-072>074-084-182200-
   CENTRAL IOWA

CITY           SKY/WX    TMP DP  RH WIND       PRES   REMARKS
AMES           SUNNY     72  52  49 S12       30.03F
ANKENY *       SUNNY     72  54  53 SE9G16    30.03F
CHARITON *     PTSUNNY   72  55  56 SE8G14    30.03F
DES MOINES     MOSUNNY   74  51  44 S10       30.03F
GRINNELL*      SUNNY     72  54  53 SE13      30.05F
KNOXVILLE *    SUNNY     72  48  43 SE13      30.02F
MARSHALLTOWN   SUNNY     72  54  53 SE15      30.03F
PELLA *        SUNNY     73  50  43 SE12G18   30.04F
PERRY *          N/A     73  50  43 S8        30.02F
$$

IAZ004>006-015-016-023>025-035-036-182200-
   NORTH CENTRAL IOWA

CITY           SKY/WX    TMP DP  RH WIND       PRES   REMARKS
ALGONA *       SUNNY     73  50  43 SE12      30.01F
CLARION *        N/A     73  46  38 SE9G18    30.02F
ESTHERVILLE    SUNNY     73  51  46 SE14      30.00F
FORT DODGE *   SUNNY     72  48  43 S8        30.02F
MASON CITY     SUNNY     72  51  47 S18       30.04F
FOREST CITY *  SUNNY     73  50  43 SE17      30.02F
IOWA FALLS *     N/A     73  52  46 SE14      30.05F
$$

IAZ007>011-017>019-026>030-037>042-050>054-066-182200-
   NORTHEAST IOWA

CITY           SKY/WX    TMP DP  RH WIND       PRES   REMARKS
CEDAR RAPIDS   MOSUNNY   72  54  53 SE8       30.05F
CHARLES CITY * SUNNY     73  52  46 S13       30.06S
CLINTON *      MOSUNNY   73  52  46 E8        30.11S
DECORAH *      PTSUNNY   70  55  60 VRB7      30.06F
DUBUQUE        PTSUNNY   70  53  54 SE8       30.09F
MONTICELLO *   MOSUNNY   72  54  53 E8G14     30.07S
OELWEIN *      MOSUNNY   73  52  46 S12       30.06F
WATERLOO       SUNNY     73  52  47 SE13      30.04F
$$

IAZ064-065-067-068-078-182200-
   EAST CENTRAL IOWA

CITY           SKY/WX    TMP DP  RH WIND       PRES   REMARKS
DAVENPORT      MOSUNNY   72  49  44 SE10      30.08S
IOWA CITY      MOSUNNY   73  54  51 VRB7      30.06F
MT. PLEASANT * MOSUNNY   77  48  36 SE7       30.04F
MUSCATINE *    SUNNY     75  50  41 VRB7      30.06S
QUAD CITIES    SUNNY     73  51  46 E7        30.06F
$$

IAZ062-063-075>077-085>089-095>099-182200-
   SOUTHEAST IOWA

CITY           SKY/WX    TMP DP  RH WIND       PRES   REMARKS
BURLINGTON     SUNNY     75  52  44 SE9       30.05S
FAIRFIELD *    MOSUNNY   73  52  46 SE8G18    30.05S
FORT MADISON * SUNNY     75  52  43 E6        30.05F
KEOKUK *       SUNNY     73  54  49 E10       30.04S
OSKALOOSA *      N/A     72  54  53 SE10G18   30.05S
CENTERVILLE *  MOSUNNY   68  59  73 SE9       30.06S
OTTUMWA        SUNNY     71  52  50 SE10      30.04F
WASHINGTON *   MOSUNNY   75  52  43 SE8G15    30.05F
$$

ABBREVIATIONS USED IN REMARKS
   TC - TEMPERATURES IN CELSIUS
  WCI - WIND CHILL INDEX
   HX - HEAT INDEX
  VSB - VISIBILITY
$$



USA.gov is the U.S. government's official web portal to all federal, state and local government web resources and services.